Change the Weather History Date:

Monday, March 4, 2013

  Actual Average (KCOS) Record (KCOS)
Temperature  
Mean Temperature 26 °F 36 °F  
Max Temperature 44 °F 49 °F 70 °F (2009)
Min Temperature 9 °F 23 °F -7 °F (1917)
Degree Days  
Heating Degree Days 38 29  
Month to date heating degree days 118  
Since 1 July heating degree days 4681  
Cooling Degree Days 0 0  
Month to date cooling degree days 0  
Year to date cooling degree days 0  
Moisture  
Dew Point 18 °F    
Average Humidity 68    
Maximum Humidity 94    
Minimum Humidity 37    
Precipitation  
Precipitation 0.00 in 0.03 in 0.98 in (1992)
Month to date precipitation 0.10  
Year to date precipitation 0.76  
Snow  
Snow 0.00 in 0.20 in 6.60 in (1982)
Month to date snowfall 0.9  
Since 1 July snowfall 24.9  
Snow Depth -    
Sea Level Pressure  
Sea Level Pressure 29.88 in    
Wind  
Wind Speed 11 mph (North)    
Max Wind Speed 25 mph    
Max Gust Speed 33 mph    
Visibility 9 miles    
Events Snow    
T = Trace of Precipitation, MM = Missing Value Source: NWS Daily Summary

Daily Weather History Graph

Daily Weather History Graph

Search for Another Location

Airport or City:

Trip Planner

Search our weather history database for the weather conditions in past years. The results will help you decide how hot, cold, wet, or windy it might be!

Date:

Astronomy

Mar. 04, 2013 Rise Set
Actual Time 6:25 AM MST 5:54 PM MST
Civil Twilight 5:59 AM MST 6:21 PM MST
Nautical Twilight 5:28 AM MST 6:52 PM MST
Astronomical Twilight 4:57 AM MST 7:23 PM MST
Moon 12:35 AM MST (3/4) 10:40 AM MST (3/4)
Length of Visible Light 12h 21m
Length of Day
11h 28m
Waning Gibbous, 51% of the Moon is Illuminated
Mar 4
Waning Gibbous
Mar 4
Last Quarter
Mar 11
New
Mar 19
First Quarter
Mar 27
Full

Hourly Weather History & Observations

Time (MST) Temp. Windchill Dew Point Humidity Pressure Visibility Wind Dir Wind Speed Gust Speed Precip Events Conditions
12:13 AM 39.9 °F 36.7 °F 19.6 °F 44% 29.74 in 10.0 mi NNE 4.6 mph - N/A   Clear
12:33 AM 42.1 °F 36.1 °F 19.8 °F 41% 29.73 in 10.0 mi WNW 10.4 mph - N/A   Clear
12:53 AM 41.7 °F 34.8 °F 19.2 °F 41% 29.73 in 10.0 mi NW 12.7 mph - N/A   Clear
1:13 AM 41.2 °F 35.0 °F 19.4 °F 42% 29.73 in 10.0 mi NW 10.4 mph - N/A   Clear
1:33 AM 43.0 °F 37.2 °F 19.0 °F 38% 29.73 in 10.0 mi WNW 10.4 mph - N/A   Clear
1:53 AM 44.1 °F 42.5 °F 19.0 °F 37% 29.73 in 10.0 mi NNW 3.5 mph 20.7 mph N/A   Clear
2:13 AM 40.3 °F 35.5 °F 19.6 °F 44% 29.73 in 10.0 mi North 6.9 mph - N/A   Clear
2:33 AM 39.7 °F 33.7 °F 20.8 °F 47% 29.72 in 10.0 mi North 9.2 mph - N/A   Clear
2:53 AM 41.9 °F 37.5 °F 20.7 °F 43% 29.73 in 10.0 mi NW 6.9 mph - N/A   Scattered Clouds
3:13 AM 40.3 °F 34.9 °F 21.2 °F 47% 29.73 in 10.0 mi North 8.1 mph - N/A   Scattered Clouds
3:33 AM 40.5 °F 34.6 °F 22.5 °F 49% 29.72 in 10.0 mi North 9.2 mph - N/A   Mostly Cloudy
3:53 AM 41.0 °F 34.7 °F 22.8 °F 48% 29.72 in 10.0 mi North 10.4 mph - N/A   Overcast
4:13 AM 40.5 °F 33.2 °F 23.4 °F 51% 29.72 in 10.0 mi North 12.7 mph - N/A   Mostly Cloudy
4:33 AM 39.9 °F 35.1 °F 23.5 °F 52% 29.72 in 10.0 mi North 6.9 mph - N/A   Scattered Clouds
4:53 AM 38.5 °F 33.4 °F 23.0 °F 54% 29.72 in 10.0 mi NNW 6.9 mph - N/A   Clear
5:13 AM 35.4 °F 30.5 °F 23.0 °F 61% 29.72 in 10.0 mi NW 5.8 mph - N/A   Clear
5:33 AM 36.9 °F 32.2 °F 22.6 °F 56% 29.74 in 10.0 mi South 5.8 mph - N/A   Clear
5:53 AM 36.3 °F - 23.0 °F 59% 29.74 in 10.0 mi Calm Calm - N/A   Mostly Cloudy
6:13 AM 36.0 °F 26.3 °F 23.9 °F 62% 29.75 in 10.0 mi NNE 16.1 mph 21.9 mph N/A   Mostly Cloudy
6:33 AM 29.5 °F 17.6 °F 25.3 °F 85% 29.77 in 10.0 mi NNE 17.3 mph 25.3 mph N/A   Overcast
6:53 AM 28.9 °F 17.3 °F 25.3 °F 86% 29.77 in 10.0 mi North 16.1 mph - N/A   Overcast
7:13 AM 28.0 °F 15.7 °F 23.9 °F 84% 29.78 in 10.0 mi North 17.3 mph 21.9 mph N/A   Overcast
7:33 AM 28.4 °F 15.8 °F 23.9 °F 83% 29.78 in 10.0 mi North 18.4 mph 28.8 mph N/A   Overcast
7:53 AM 28.2 °F 15.9 °F 22.1 °F 78% 29.80 in 10.0 mi North 17.3 mph 27.6 mph N/A   Mostly Cloudy
8:13 AM 29.3 °F 17.3 °F 20.1 °F 69% 29.79 in 10.0 mi North 17.3 mph 26.5 mph N/A   Scattered Clouds
8:33 AM 31.8 °F 21.4 °F 19.9 °F 62% 29.80 in 10.0 mi North 15.0 mph - N/A   Mostly Cloudy
8:53 AM 32.2 °F 20.4 °F 20.1 °F 61% 29.78 in 10.0 mi North 19.6 mph 24.2 mph N/A   Mostly Cloudy
9:13 AM 32.7 °F 21.4 °F 20.5 °F 61% 29.78 in 10.0 mi North 18.4 mph - N/A   Overcast
9:33 AM 31.1 °F 19.7 °F 19.9 °F 63% 29.78 in 10.0 mi North 17.3 mph 21.9 mph N/A   Overcast
9:53 AM 31.1 °F 20.5 °F 20.5 °F 65% 29.78 in 10.0 mi North 15.0 mph - N/A   Overcast
10:13 AM 30.9 °F 20.7 °F 20.3 °F 65% 29.78 in 10.0 mi North 13.8 mph - N/A   Mostly Cloudy
10:53 AM 34.7 °F 25.9 °F 22.1 °F 60% 29.78 in 10.0 mi NNE 12.7 mph - N/A   Overcast
11:13 AM 35.4 °F 27.3 °F 22.8 °F 60% 29.78 in 10.0 mi NNE 11.5 mph 17.3 mph N/A   Mostly Cloudy
11:53 AM 40.3 °F 34.4 °F 22.8 °F 50% 29.78 in 10.0 mi ENE 9.2 mph - N/A   Scattered Clouds
12:13 PM 38.5 °F 32.7 °F 23.4 °F 55% 29.78 in 10.0 mi ENE 8.1 mph 18.4 mph N/A   Mostly Cloudy
12:33 PM 38.1 °F 30.7 °F 22.6 °F 54% 29.78 in 10.0 mi ENE 11.5 mph - N/A   Overcast
12:53 PM 34.9 °F 29.0 °F 22.6 °F 61% 29.79 in 10.0 mi NE 6.9 mph - N/A   Overcast
1:13 PM 35.4 °F 26.4 °F 23.4 °F 62% 29.79 in 10.0 mi NE 13.8 mph - N/A   Overcast
1:33 PM 31.6 °F 20.7 °F 26.4 °F 81% 29.80 in 4.0 mi NNE 16.1 mph 19.6 mph N/A Snow Light Snow
1:53 PM 28.0 °F 13.3 °F 23.5 °F 83% 29.82 in 3.0 mi NNE 25.3 mph 29.9 mph N/A Snow Light Snow
2:13 PM 25.7 °F 10.8 °F 21.6 °F 84% 29.84 in 2.0 mi NNE 23.0 mph 27.6 mph N/A Snow Light Snow
2:33 PM 24.1 °F 8.0 °F 20.8 °F 87% 29.86 in 0.5 mi NNE 25.3 mph 33.4 mph N/A Snow Light Snow
2:53 PM 23.9 °F 9.9 °F 21.7 °F 91% 29.89 in 0.2 mi North 18.4 mph 27.6 mph N/A Snow Snow
3:13 PM 23.4 °F 10.6 °F 21.7 °F 94% 29.89 in 0.2 mi NNE 15.0 mph 24.2 mph N/A Snow Heavy Snow
3:33 PM 22.6 °F 7.5 °F 21.0 °F 93% 29.94 in - North 20.7 mph 31.1 mph N/A   Overcast
3:53 PM 21.0 °F 4.6 °F 19.0 °F 92% 29.92 in - NNE 23.0 mph 29.9 mph N/A   Unknown
4:13 PM 20.1 °F 4.2 °F 18.1 °F 92% 29.94 in - NNE 20.7 mph 26.5 mph N/A   Overcast
4:33 PM 20.7 °F 7.1 °F 16.7 °F 85% 29.95 in - North 15.0 mph 24.2 mph N/A   Unknown
4:53 PM 20.7 °F 5.3 °F 16.2 °F 83% 29.97 in - North 19.6 mph 26.5 mph N/A   Unknown
5:13 PM 20.3 °F 5.2 °F 15.8 °F 83% 30.00 in - North 18.4 mph 29.9 mph N/A   Overcast
5:33 PM 20.8 °F 7.9 °F 16.7 °F 84% 30.00 in - North 13.8 mph 27.6 mph N/A   Overcast
5:53 PM 20.3 °F 5.2 °F 16.3 °F 85% 30.01 in - North 18.4 mph 27.6 mph N/A   Overcast
6:13 PM 19.8 °F 6.5 °F 16.2 °F 86% 30.03 in - North 13.8 mph 18.4 mph N/A   Unknown
6:33 PM 19.2 °F 5.3 °F 14.2 °F 81% 30.03 in - North 15.0 mph 20.7 mph N/A   Scattered Clouds
6:53 PM 18.5 °F 4.9 °F 13.1 °F 79% 30.04 in - North 13.8 mph 19.6 mph N/A   Clear
7:13 PM 18.5 °F 4.9 °F 12.2 °F 76% 30.06 in - North 13.8 mph 19.6 mph N/A   Clear
7:33 PM 17.4 °F 2.9 °F 11.8 °F 79% 30.08 in - North 15.0 mph - N/A   Clear
7:53 PM 17.6 °F 2.7 °F 11.7 °F 78% 30.09 in - North 16.1 mph - N/A   Clear
8:13 PM 16.7 °F 3.8 °F 10.9 °F 78% 30.11 in - North 11.5 mph - N/A   Clear
8:33 PM 14.9 °F 1.6 °F 9.5 °F 79% 30.12 in - North 11.5 mph - N/A   Clear
8:53 PM 13.3 °F 0.3 °F 8.1 °F 80% 30.13 in - North 10.4 mph - N/A   Clear
9:13 PM 15.4 °F 1.6 °F 8.6 °F 74% 30.13 in 10.0 mi North 12.7 mph - N/A   Clear
9:33 PM 16.0 °F 1.7 °F 7.7 °F 70% 30.14 in 10.0 mi North 13.8 mph - N/A   Clear
9:53 PM 15.8 °F 2.1 °F 7.2 °F 69% 30.14 in 10.0 mi North 12.7 mph - N/A   Clear
10:13 PM 15.4 °F 3.8 °F 6.6 °F 68% 30.16 in 10.0 mi WNW 9.2 mph - N/A   Clear
10:33 PM 16.2 °F 3.9 °F 6.6 °F 66% 30.17 in 10.0 mi West 10.4 mph 16.1 mph N/A   Clear
10:53 PM 14.0 °F 8.2 °F 5.7 °F 70% 30.17 in 10.0 mi West 3.5 mph - N/A   Clear
11:13 PM 11.8 °F 3.9 °F 5.0 °F 74% 30.17 in 10.0 mi WNW 4.6 mph - N/A   Clear
11:33 PM 9.0 °F 0.6 °F 3.6 °F 79% 30.17 in 10.0 mi WNW 4.6 mph - N/A   Clear
11:53 PM 9.7 °F 1.4 °F 5.4 °F 83% 30.17 in 10.0 mi WSW 4.6 mph - N/A   Scattered Clouds